Date String (YYYY-MM-DD hh:mm:ss) UTC,Instrument flags,absolute air pressure of the measurement (hPa),sample flow rate (lpm),inlet stack bypass flow (lpm),air temperature of the measurement (°C),ambient temperature measured by the external sensor (°C),aerosol sample conditioner tube jacket temperature (°C),OPC LED temperature (°C),internal box temperature (°C),relative humidity of the measurement (%),span deviation,mass concentration of particles derived from Lorenz-Mie calculation of OPC scattering (μg/m³),mass concentration of particles derived from Lorenz-Mie calculation of OPC scattering (μg/m³),mass concentration of particles derived from Lorenz-Mie calculation of OPC scattering (μg/m³)
DateTimeUTC,F1_M11,P_M11,Q1_M11,Q2_M11,T1_M11,T2_M11,T3_M11,T4_M11,T5_M11,U1_M11,ZSPAN_M11,X0_M11,X2_M11,X1_M11
2023-08-30 17:00:00,SystemResetWarning,0832.5,5.00,000.00,028.0,026.1,000.0,036.3,029.6,29.5,0001.5,0008.91,0005.34,0004.81
2023-08-30 17:01:00,SystemResetWarning,0832.5,4.98,000.00,028.0,025.5,000.0,036.2,029.4,30.0,0001.1,0010.18,0005.32,0004.81
2023-08-30 17:02:00,SystemResetWarning,0832.5,5.00,000.00,027.8,024.2,000.0,036.1,029.0,30.8,0001.1,0010.92,0005.33,0004.82
2023-08-30 17:03:00,SystemResetWarning,0832.5,5.00,000.00,027.7,023.0,000.0,036.0,028.4,31.2,0001.5,0011.11,0005.33,0004.83
2023-08-30 17:04:00,SystemResetWarning,0832.4,5.01,000.00,027.5,022.3,000.0,035.9,028.1,31.7,0001.2,0011.65,0005.33,0004.84
2023-08-30 17:05:00,SystemResetWarning,0832.4,5.02,000.00,027.3,022.5,000.0,035.9,028.2,30.9,0000.5,0011.53,0005.34,0004.84
2023-08-30 17:06:00,SystemResetWarning,0832.4,5.00,000.00,027.2,023.0,000.0,035.8,028.2,30.7,0000.3,0011.68,0005.33,0004.83
2023-08-30 17:07:00,SystemResetWarning,0832.4,5.00,000.00,027.2,023.6,000.0,035.8,028.4,32.5,-000.1,0011.67,0005.28,0004.82
2023-08-30 17:08:00,SystemResetWarning,0832.4,5.00,000.00,027.2,023.8,000.0,035.7,028.5,33.5,0000.1,0011.79,0005.28,0004.81
2023-08-30 17:09:00,SystemResetWarning,0832.4,4.99,000.00,027.1,023.1,000.0,035.6,028.1,33.3,0000.2,0011.78,0005.29,0004.80
2023-08-30 17:10:00,SystemResetWarning,0832.3,4.99,000.00,026.9,022.2,000.0,035.5,027.7,32.7,0000.4,0011.75,0005.29,0004.80
2023-08-30 17:11:00,SystemResetWarning,0832.3,5.00,000.00,026.7,021.4,000.0,035.3,027.4,33.4,0000.4,0011.70,0005.25,0004.80
2023-08-30 17:12:00,SystemResetWarning,0832.3,5.00,000.00,026.5,020.7,000.0,035.2,027.0,34.3,0000.5,0010.77,0005.24,0004.80
2023-08-30 17:13:00,SystemResetWarning,0832.2,5.00,000.00,026.4,020.8,000.0,035.1,027.0,35.5,0000.4,0010.21,0005.26,0004.82
2023-08-30 17:14:00,SystemResetWarning,0832.2,5.01,000.00,026.4,021.3,000.0,035.0,027.1,35.9,-000.1,0010.07,0005.25,0004.83
2023-08-30 17:15:00,SystemResetWarning,0832.2,4.99,000.00,026.7,022.0,000.0,035.0,027.5,36.4,0000.0,0009.63,0005.25,0004.84
2023-08-30 17:16:00,SystemResetWarning,0832.3,5.00,000.00,027.0,022.7,000.0,034.9,027.8,34.8,0000.0,0009.42,0005.27,0004.85
2023-08-30 17:17:00,SystemResetWarning,0832.3,5.00,000.00,027.3,022.5,000.0,034.9,027.7,36.9,0000.0,0009.58,0005.27,0004.85
2023-08-30 17:18:00,SystemResetWarning,0832.2,5.02,000.00,027.6,021.7,000.0,034.8,027.4,36.1,0000.6,0009.56,0005.31,0004.86
2023-08-30 17:19:00,SystemResetWarning,0832.2,4.99,000.00,027.8,021.2,000.0,034.8,027.3,34.4,0000.1,0009.50,0005.35,0004.89
2023-08-30 17:20:00,SystemResetWarning,0832.2,4.99,000.00,028.0,021.5,000.0,034.8,027.3,34.6,0000.3,0009.45,0005.38,0004.91
2023-08-30 17:21:00,SystemResetWarning,0832.3,5.02,000.00,028.0,022.0,000.0,034.9,027.3,34.0,0000.2,0009.50,0005.39,0004.93
2023-08-30 17:22:00,SystemResetWarning,0832.3,4.97,000.00,028.1,022.6,000.0,035.1,027.5,34.1,0000.0,0009.59,0005.42,0004.95
2023-08-30 17:23:00,SystemResetWarning,0832.3,5.00,000.00,028.2,022.8,000.0,035.2,027.6,33.1,-000.4,0009.69,0005.48,0004.97
2023-08-30 17:24:00,SystemResetWarning,0832.2,5.00,000.00,028.2,022.1,000.0,035.2,027.2,34.0,-000.8,0009.37,0005.48,0004.96
2023-08-30 17:25:00,SystemResetWarning,0832.2,5.00,000.00,028.1,021.7,000.0,035.2,027.1,33.5,-000.5,0009.23,0005.49,0004.96
2023-08-30 17:26:00,SystemResetWarning,0832.2,5.01,000.00,028.1,021.9,000.0,035.3,027.1,33.9,-000.3,0009.51,0005.50,0004.97
2023-08-30 17:27:00,SystemResetWarning,0832.2,5.01,000.00,027.9,022.3,000.0,035.3,027.2,33.0,-000.8,0009.40,0005.49,0004.96
2023-08-30 17:28:00,SystemResetWarning,0832.2,5.00,000.00,027.9,022.9,000.0,035.4,027.5,33.0,-001.1,0009.14,0005.46,0004.94
2023-08-30 17:29:00,SystemResetWarning,0832.2,4.99,000.00,027.9,023.2,000.0,035.4,027.6,32.6,-000.0,0008.92,0005.41,0004.91
2023-08-30 17:30:00,SystemResetWarning,0832.2,4.99,000.00,027.9,022.6,000.0,035.4,027.3,34.1,0000.0,0008.79,0005.32,0004.87
2023-08-30 17:31:00,SystemResetWarning,0832.2,5.00,000.00,027.8,021.7,000.0,035.3,027.0,34.7,0000.0,0008.98,0005.26,0004.82
2023-08-30 17:32:00,SystemResetWarning,0832.2,5.02,000.00,027.7,021.8,000.0,035.2,027.1,34.5,0000.0,0009.52,0005.23,0004.78
2023-08-30 17:33:00,SystemResetWarning,0832.2,5.00,000.00,027.6,022.1,000.0,035.2,027.1,33.7,0000.0,0009.43,0005.19,0004.74
2023-08-30 17:34:00,SystemResetWarning,0832.2,5.01,000.00,027.5,022.6,000.0,035.3,027.3,34.0,0000.0,0009.37,0005.13,0004.69
2023-08-30 17:35:00,SystemResetWarning,0832.2,5.00,000.00,027.5,023.2,000.0,035.3,027.5,34.7,-000.1,0009.23,0005.08,0004.65
2023-08-30 17:36:00,SystemResetWarning,0832.1,5.00,000.00,027.5,023.4,000.0,035.3,027.6,34.2,0000.0,0009.50,0005.05,0004.61
2023-08-30 17:37:00,SystemResetWarning,0832.1,4.99,000.00,027.4,022.6,000.0,035.2,027.3,33.9,0000.0,0009.39,0005.00,0004.57
2023-08-30 17:38:00,SystemResetWarning,0832.1,5.00,000.00,027.3,022.3,000.0,035.1,027.2,33.8,-000.4,0009.42,0005.00,0004.56
2023-08-30 17:39:00,SystemResetWarning,0832.1,5.00,000.00,027.3,022.5,000.0,035.1,027.2,34.1,-001.1,0009.96,0005.02,0004.55
2023-08-30 17:40:00,SystemResetWarning,0832.1,5.00,000.00,027.2,022.9,000.0,035.1,027.3,34.8,-000.9,0010.46,0005.03,0004.55
2023-08-30 17:41:00,SystemResetWarning,0832.0,5.00,000.00,027.3,023.3,000.0,035.1,027.5,35.4,-000.7,0010.52,0005.04,0004.54
2023-08-30 17:42:00,SystemResetWarning,0832.1,5.01,000.00,027.5,023.4,000.0,035.1,027.6,34.6,-000.8,0010.31,0005.04,0004.53
2023-08-30 17:43:00,SystemResetWarning,0832.1,4.98,000.00,027.5,022.6,000.0,035.0,027.2,34.1,-001.4,0009.58,0005.04,0004.55
2023-08-30 17:44:00,SystemResetWarning,0832.1,5.02,000.00,027.5,021.9,000.0,034.9,027.0,34.4,-001.0,0009.52,0005.03,0004.57
2023-08-30 17:45:00,SystemResetWarning,0832.0,5.00,000.00,027.4,021.9,000.0,034.9,027.1,34.3,-000.1,0009.54,0005.06,0004.60
2023-08-30 17:46:00,SystemResetWarning,0832.0,5.00,000.00,027.4,022.3,000.0,035.0,027.1,34.1,0000.0,0009.51,0005.06,0004.60
2023-08-30 17:47:00,SystemResetWarning,0832.0,4.97,000.00,027.3,022.8,000.0,035.0,027.3,35.3,0000.0,0009.34,0005.06,0004.61
2023-08-30 17:48:00,SystemResetWarning,0832.0,5.03,000.00,027.5,023.3,000.0,035.0,027.6,34.3,0000.0,0009.02,0005.06,0004.62
2023-08-30 17:49:00,SystemResetWarning,0832.0,4.97,000.00,027.6,023.7,000.0,035.1,027.7,33.8,0000.0,0008.95,0005.05,0004.65
2023-08-30 17:50:00,SystemResetWarning,0832.0,5.02,000.00,027.6,023.1,000.0,035.0,027.5,33.3,0000.0,0008.53,0005.05,0004.67
2023-08-30 17:51:00,SystemResetWarning,0832.0,5.00,000.00,027.5,022.4,000.0,035.0,027.2,33.5,0000.0,0008.13,0005.07,0004.68
2023-08-30 17:52:00,SystemResetWarning,0832.0,5.00,000.00,027.5,022.5,000.0,035.0,027.2,33.9,0000.0,0008.41,0005.11,0004.73
2023-08-30 17:53:00,SystemResetWarning,0831.9,5.01,000.00,027.4,022.8,000.0,035.0,027.3,34.1,-000.0,0008.48,0005.14,0004.75
2023-08-30 17:54:00,SystemResetWarning,0831.8,4.99,000.00,027.4,023.3,000.0,035.1,027.5,34.7,-000.1,0008.56,0005.14,0004.75
2023-08-30 17:55:00,SystemResetWarning,0831.8,4.99,000.00,027.4,023.7,000.0,035.1,027.7,35.2,0000.0,0008.96,0005.17,0004.77
2023-08-30 17:56:00,SystemResetWarning,0831.9,4.99,000.00,027.7,023.6,000.0,035.1,027.7,34.9,0000.0,0009.43,0005.20,0004.79
2023-08-30 17:57:00,SystemResetWarning,0831.8,5.03,000.00,027.8,022.7,000.0,035.0,027.4,35.0,0000.2,0009.74,0005.21,0004.82
2023-08-30 17:58:00,SystemResetWarning,0831.9,4.97,000.00,027.9,022.5,000.0,035.0,027.5,34.0,0000.7,0010.29,0005.23,0004.85
2023-08-30 17:59:00,SystemResetWarning,0831.9,5.00,000.00,027.9,022.8,000.0,035.1,027.5,33.7,0000.9,0010.29,0005.28,0004.87
